Location: Querceta
(43.9763°N, 10.1983°E)
Time: 07:39:02
(UTC+01:00)

N. Korean satellite - Visible Passes

Search period start: 26 February 2021 00:00
Search period end: 08 March 2021 00:00
Orbit: 451 x 503 km, 97.2° (Epoch: 25 February)

Date Brightness Start Highest point End Pass type
(mag) Time Alt. Az. Time Alt. Az. Time Alt. Az.
26 Feb 7.4 05:32:58 10° NNE 05:36:23 52° E 05:39:50 10° S visible
27 Feb 9.0 05:06:41 10° NE 05:09:35 24° E 05:12:29 10° SSE visible
28 Feb 9.9 04:41:21 10° ENE 04:42:40 12° E 04:43:58 10° ESE visible
28 Feb 6.8 06:12:50 10° N 06:16:11 44° WNW 06:19:35 10° SW visible
01 Mar 6.6 05:45:59 10° NNE 05:49:30 80° E 05:53:04 10° S visible
02 Mar 8.3 05:19:27 10° NNE 05:22:43 35° E 05:26:00 10° SSE visible
03 Mar 9.6 04:53:26 10° NE 04:55:50 17° E 04:58:13 10° SE visible
04 Mar 6.5 05:59:00 10° N 06:02:32 68° WNW 06:06:05 10° SSW visible
05 Mar 7.4 05:32:17 10° NNE 05:35:46 52° E 05:39:17 10° S visible
06 Mar 9.0 05:05:57 10° NE 05:08:55 24° E 05:11:53 10° SSE visible
07 Mar 9.9 04:40:31 10° ENE 04:41:56 12° E 04:43:21 10° ESE visible
07 Mar 6.9 06:12:03 10° N 06:15:28 45° WNW 06:18:56 10° SSW visible
